sat.trackr.live / text

‹ back to catalog

STARLINK-31930

NORAD 60596 · 2024-150P

PAYLOAD ACTIVE UNKNOWN

§ Identity

Operator
Country
US
Launch date
2024-08-20
Launch site
AFETR
Launch vehicle
Mass (kg)
RCS (m²)

Purposes: comms

External: N2YO · Heavens-Above · Gunter

§ Orbital elements

Epoch: 2026-05-25T04:40:32.159424Z

Period
93.85 min
Inclination
53.1622°
Eccentricity
0.0001259
Mean motion
15.34394503 rev/d
Perigee alt
461.9 km
Apogee alt
463.6 km
Semi-major
6,840.9 km
B*
5.0927e-5
RAAN
311.0284°
Arg perigee
81.3867°
Mean anomaly
278.7278°
Rev number
9,968

§ Raw data

STARLINK-319301 60596U 24150P   26145.19481666  .00001344  00000+0  50927-4 0  99952 60596  53.1622 311.0284 0001259  81.3867 278.7278 15.34394503 99686

JSON: /api/v1/satellites/60596 · /tle

For live sub-satellite position, see the globe view (requires WebGL).

§ Visibility from observer

Set your observer location to see the next 7 days of passes ≥ 10°. The values pass through the URL so the page stays shareable.

No JS? Fill the form by hand. The geolocation button needs JavaScript.